Location: ?????????
(38.5999°N, 22.7695°E)
Time: 11:21:43
(UTC+00:00)

Cosmos 2333 Rocket - Pass Details

Date: 23 May 2024
Orbit: 838 x 863 km, 70.8° (Epoch: 23 June)

Event Time Altitude Azimuth Distance (km) Brightness Sun altitude
Rises 00:50:04 0° 341° (NNW) 3,424 5.9 -21.8°
Reaches altitude 10° 00:52:35 10° 347° (NNW) 2,488 5.1 -21.5°
Maximum altitude 00:58:10 52° 63° (ENE) 1,055 3.0 -20.8°
Drops below altitude 10° 01:03:44 10° 140° (SE) 2,489 4.5 -20.1°
Sets 01:06:16 0° 145° (SE) 3,424 5.2 -19.8°
